Location: Qazi Observatory
(41.6337°N, 88.1517°W)
Time: 01:34:22
(UTC-05:00)

Amateur Radio Satellites - All Passes

Search period start: 01 July 2015 01:04
Search period end: 02 July 2015 01:04
Location: Qazi Observatory, 41.6337°N, 88.1517°W

Satellite Date Start Highest point End Downlink Frequencies (MHz)
Time Altitude Azimuth
TISAT 1 01 Jul 01:06:16 01:10:17 39° 262° (W) 01:14:17 437.305
BEESAT 01 Jul 01:12:49 01:17:12 38° 70° (ENE) 01:21:40 436.000
Oscar 19 01 Jul 01:21:57 01:25:29 19° 91° (E) 01:29:12 437.125/150
SWISSCUBE 01 Jul 01:27:25 01:32:06 59° 73° (ENE) 01:36:50 437.505
ITUPSAT 1 01 Jul 01:30:43 01:35:23 57° 73° (ENE) 01:40:07 437.325
QB50P2 01 Jul 01:32:44 01:34:40 13° 296° (WNW) 01:36:26 145.880/145.840
POPSAT HIP 1 01 Jul 01:34:35 01:36:28 12° 296° (WNW) 01:38:09 437.405
BUGSAT 1 01 Jul 01:37:24 01:40:00 16° 294° (WNW) 01:42:26 437.445
SPROUT 01 Jul 01:47:27 01:48:41 11° 272° (W) 01:49:39 437.525
KKS-1 01 Jul 01:57:05 02:00:11 19° 66° (ENE) 02:03:24 437.445
RS-15 01 Jul 01:58:16 02:07:12 32° 106° (ESE) 02:16:39 29.354- 29.394
SO-50 01 Jul 02:09:28 02:14:07 39° 48° (NE) 02:18:44 436.795
PCSat 01 Jul 02:10:01 02:15:29 84° 240° (WSW) 02:20:54 145.827
Cosmos 2491 01 Jul 02:11:25 02:19:24 39° 70° (ENE) 02:27:27 435.465 / 435.565
Gurwin Techsat 1B 01 Jul 02:33:31 02:37:58 27° 94° (E) 02:42:29 435.225
YUBILEINY 01 Jul 02:48:39 02:55:22 27° 83° (E) 03:02:22 435.215
BEESAT 01 Jul 02:51:25 02:55:12 23° 267° (W) 02:58:55 436.000
AIST 1 01 Jul 02:56:22 03:00:22 34° 76° (ENE) 03:04:22
STARS 01 Jul 02:57:54 03:02:08 49° 73° (ENE) 03:06:25 437.465
Oscar 19 01 Jul 03:00:14 03:05:11 51° 289° (WNW) 03:10:08 437.125/150
ITAMSAT 1 01 Jul 03:02:45 03:07:48 48° 99° (E) 03:12:50 435.822/435.867
SWISSCUBE 01 Jul 03:07:37 03:10:25 15° 271° (W) 03:13:01 437.505
ITUPSAT 1 01 Jul 03:10:49 03:13:43 15° 270° (W) 03:16:26 437.325
MOZHAYETS 4 01 Jul 03:22:31 03:25:07 16° 64° (ENE) 03:27:53
KKS-1 01 Jul 03:32:17 03:36:33 42° 262° (W) 03:40:48 437.445
JAS-2 01 Jul 03:39:08 03:44:57 35° 96° (E) 03:51:29 435.910
SO-50 01 Jul 03:50:17 03:54:33 29° 246° (WSW) 03:58:41 436.795
PCSat 01 Jul 03:56:54 03:58:10 11° 257° (WSW) 03:59:03 145.827
AO-7 01 Jul 04:02:51 04:10:03 32° 95° (E) 04:17:23 29.400- 29.500
RS-15 01 Jul 04:07:53 04:18:46 71° 308° (NW) 04:30:04 29.354- 29.394
Cosmos 2491 01 Jul 04:08:12 04:16:29 47° 271° (W) 04:24:35 435.465 / 435.565
Gurwin Techsat 1B 01 Jul 04:13:08 04:18:04 39° 291° (WNW) 04:22:56 435.225
HORYU 2 01 Jul 04:23:24 04:27:39 43° 98° (E) 04:31:56 437.375
AIST 1 01 Jul 04:34:36 04:37:48 19° 272° (W) 04:40:51
STARS 01 Jul 04:36:14 04:38:55 15° 269° (W) 04:41:26 437.465
ITAMSAT 1 01 Jul 04:42:58 04:47:01 23° 295° (WNW) 04:50:56 435.822/435.867
YUBILEINY 01 Jul 04:42:58 04:51:36 65° 282° (WNW) 05:00:15 435.215
MOZHAYETS 4 01 Jul 04:57:26 05:01:55 57° 260° (W) 05:06:27
CUBESAT XI-V 01 Jul 05:14:25 05:17:43 20° 66° (ENE) 05:21:10 437.345
JAS-2 01 Jul 05:24:07 05:30:06 43° 290° (WNW) 05:36:43 435.910
Cosmos 2504 01 Jul 05:44:45 05:51:10 37° 88° (E) 05:57:37 435.465 / 435.565
Cubesat XI-IV 01 Jul 05:45:43 05:46:03 10° 85° (E) 05:46:48 437.490
AO-7 01 Jul 05:55:08 06:03:19 59° 294° (WNW) 06:11:24 29.400- 29.500
HORYU 2 01 Jul 06:00:52 06:04:00 19° 294° (WNW) 06:07:02 437.375
STRAND 1 01 Jul 06:12:36 06:16:59 30° 67° (ENE) 06:21:29 437.568
RS-15 01 Jul 06:24:35 06:33:45 28° 337° (NNW) 06:43:03 29.354- 29.394
YUBILEINY 01 Jul 06:46:52 06:50:41 13° 307° (NW) 06:53:53 435.215
CUTE-I 01 Jul 06:48:50 06:53:56 43° 98° (E) 06:59:01 437.470
CUBESAT XI-V 01 Jul 06:50:21 06:54:52 45° 262° (W) 06:59:24 437.345
PRISM 01 Jul 07:06:46 07:10:55 85° 254° (WSW) 07:15:08 437.425
DANDE 01 Jul 07:15:03 07:18:28 14° 89° (E) 07:22:00 436.750
Cubesat XI-IV 01 Jul 07:21:39 07:27:05 86° 102° (ESE) 07:32:27 437.490
Cosmos 2504 01 Jul 07:37:50 07:44:33 39° 287° (WNW) 07:51:08 435.465 / 435.565
AO-7 01 Jul 07:50:28 07:54:32 14° 314° (NW) 07:58:09 29.400- 29.500
STRAND 1 01 Jul 07:51:27 07:56:07 34° 264° (W) 08:00:47 437.568
BRITE-PL 01 Jul 07:55:21 07:58:22 19° 90° (E) 08:01:24 437.365/2234.400
AUBIESAT-1 01 Jul 07:56:16 07:59:15 33° 67° (ENE) 08:02:21 437.475
O/OREOS (USA 219) 01 Jul 08:08:31 08:12:50 50° 108° (ESE) 08:17:10 437.305
CUSAT 1 01 Jul 08:16:50 08:23:43 58° 97° (E) 08:29:04 437.405
HO-68 01 Jul 08:24:04 08:29:14 22° 90° (E) 08:34:41 435.675
M-CUBED/EXP-1 PRIME 01 Jul 08:26:37 08:29:54 75° 255° (WSW) 08:33:15 437.505
CUTE-I 01 Jul 08:29:23 08:33:48 26° 295° (WNW) 08:38:05 437.470
SEEDS 01 Jul 08:34:28 08:36:20 13° 89° (E) 08:38:25 437.485
VERMONT LUNAR 01 Jul 08:36:11 08:37:57 14° 151° (SSE) 08:39:46 437.305
RS-15 01 Jul 08:42:47 08:51:18 23° 12° (NNE) 09:00:14 29.354- 29.394
BEESAT 3 01 Jul 08:43:23 08:47:27 75° 304° (NW) 08:51:35 437.485
BEESAT 2 01 Jul 08:50:12 08:54:18 81° 303° (WNW) 08:58:28 435.950
DOVE 4 01 Jul 08:51:57 08:55:29 27° 95° (E) 08:59:02 437.250
DANDE 01 Jul 08:53:38 09:01:25 86° 100° (E) 09:07:29 436.750
AAUSAT CUBESAT 2 01 Jul 08:54:42 08:57:00 15° 90° (E) 08:59:28 437.432
Cubesat XI-IV 01 Jul 09:03:45 09:06:31 14° 300° (WNW) 09:09:02 437.490
CUTE 1.7 + AOD 2 01 Jul 09:14:04 09:18:10 44° 98° (E) 09:22:17 437.475
COMPASS 1 01 Jul 09:16:25 09:20:09 30° 95° (E) 09:23:54 437.405
CANX-2 01 Jul 09:16:46 09:20:58 53° 99° (E) 09:25:11 2200.000
GONETS M04 01 Jul 09:18:25 09:26:52 55° 91° (E) 09:35:21
TIGRISAT 01 Jul 09:22:42 09:24:31 13° 64° (ENE) 09:26:32 435.000
ISS 01 Jul 09:26:54 09:30:00 44° 139° (SE) 09:33:07 145.825
GOMX 1 01 Jul 09:27:07 09:31:23 71° 285° (WNW) 09:35:30 467.674
AUBIESAT-1 01 Jul 09:32:43 09:34:17 12° 264° (W) 09:35:42 437.475
BRITE-PL 01 Jul 09:33:04 09:37:10 36° 290° (WNW) 09:41:01 437.365/2234.400
DELFI C3 01 Jul 09:36:23 09:38:07 13° 89° (E) 09:40:03 145.870
CUBEBUG 2 01 Jul 09:41:32 09:44:40 21° 93° (E) 09:47:54 437.445
AIST 2 01 Jul 09:44:06 09:48:22 87° 302° (WNW) 09:52:41 435.215
O/OREOS (USA 219) 01 Jul 09:49:32 09:52:36 17° 307° (NW) 09:55:34 437.305
QB50P1 01 Jul 09:55:57 09:57:46 13° 64° (ENE) 09:59:46 145.935-145.965
UNISAT 6 01 Jul 09:58:38 10:02:25 31° 70° (ENE) 10:06:14 437.425
ZACube-1 01 Jul 10:00:04 10:03:10 20° 93° (E) 10:06:23 437.345
CUSAT 1 01 Jul 10:01:22 10:06:27 22° 288° (WNW) 10:10:32 437.405
CINEMA 3 01 Jul 10:04:26 10:08:36 81° 102° (ESE) 10:12:48 145.822/145.860
SEEDS 01 Jul 10:08:22 10:12:32 54° 286° (WNW) 10:16:40 437.485
Cosmos 2499 01 Jul 10:09:40 10:14:16 20° 83° (E) 10:19:11 435.465 / 435.565
NANOSAT C BR1 01 Jul 10:10:32 10:13:22 18° 66° (ENE) 10:16:18 145.865
HO-68 01 Jul 10:10:32 10:17:40 70° 289° (WNW) 10:24:45 435.675
VERMONT LUNAR 01 Jul 10:11:26 10:14:28 48° 165° (SSE) 10:17:32 437.305
Oscar 11 01 Jul 10:16:27 10:20:44 54° 100° (E) 10:25:00 145.826/435.025
DUCHIFAT 1 01 Jul 10:18:25 10:21:34 21° 68° (ENE) 10:24:49 145.980
POLYITAN 1 01 Jul 10:18:35 10:21:51 22° 68° (ENE) 10:25:12 437.675
BEESAT 3 01 Jul 10:24:53 10:26:11 11° 324° (NW) 10:27:21 437.485
AAUSAT CUBESAT 2 01 Jul 10:28:51 10:32:54 46° 287° (WNW) 10:36:56 437.432
DOVE 4 01 Jul 10:29:48 10:33:13 24° 291° (WNW) 10:36:30 437.250
BEESAT 2 01 Jul 10:31:28 10:33:06 12° 323° (NW) 10:34:37 435.950
FUNcube-1 01 Jul 10:37:09 10:41:15 51° 100° (E) 10:45:24 145.935
UWE-3 01 Jul 10:39:39 10:43:51 75° 102° (ESE) 10:48:06 435.000/436.395/437.385
DANDE 01 Jul 10:40:22 10:45:00 17° 293° (WNW) 10:48:45 436.750
ANTELSAT 01 Jul 10:42:27 10:46:47 85° 256° (WSW) 10:51:05 437.575/2403.000
QB50P2 01 Jul 10:47:58 10:52:02 46° 73° (ENE) 10:56:08 145.880/145.840
HUMSAT D 01 Jul 10:48:42 10:52:20 30° 96° (E) 10:56:03 437.325/437.525
POPSAT HIP 1 01 Jul 10:49:39 10:53:44 47° 73° (ENE) 10:57:49 437.405
CUTE 1.7 + AOD 2 01 Jul 10:50:57 10:53:47 17° 294° (WNW) 10:56:28 437.475
BUGSAT 1 01 Jul 10:51:04 10:54:48 32° 70° (ENE) 10:58:35 437.445
COMPASS 1 01 Jul 10:52:18 10:55:42 23° 291° (WNW) 10:59:00 437.405
CANX-2 01 Jul 10:54:05 10:56:31 15° 295° (WNW) 10:58:47 2200.000
RS-15 01 Jul 10:56:26 11:07:33 49° 43° (NE) 11:19:12 29.354- 29.394
TIGRISAT 01 Jul 10:56:34 11:00:51 61° 259° (W) 11:05:06 435.000
VELOX 1 01 Jul 11:00:07 11:03:07 18° 92° (E) 11:06:14 145.980
ISS 01 Jul 11:03:38 11:06:30 28° 337° (NNW) 11:09:22 145.825
DELFI C3 01 Jul 11:09:36 11:13:34 50° 286° (WNW) 11:17:29 145.870
PHONESAT 2.4 01 Jul 11:14:07 11:17:19 37° 160° (SSE) 11:20:34 2401.200-2431.200
GONETS M04 01 Jul 11:16:21 11:24:10 33° 292° (WNW) 11:31:49
CUBEBUG 2 01 Jul 11:17:41 11:21:27 32° 289° (WNW) 11:25:13 437.445
DX 1 01 Jul 11:22:34 11:26:53 59° 101° (E) 11:31:09 434.975-435.025
AIST 2 01 Jul 11:25:30 11:27:38 13° 322° (NW) 11:29:39 435.215
QB50P1 01 Jul 11:28:58 11:33:11 61° 259° (W) 11:37:24 145.935-145.965
UNISAT 6 01 Jul 11:35:49 11:39:17 22° 267° (W) 11:42:37 437.425
ZACube-1 01 Jul 11:35:50 11:39:37 33° 289° (WNW) 11:43:25 437.345
50 SAT 01 Jul 11:36:57 11:40:47 54° 100° (E) 11:44:38 437.505
NANOSAT C BR1 01 Jul 11:44:54 11:48:55 41° 262° (W) 11:52:56 145.865
AISAT 01 Jul 11:45:01 11:49:23 58° 101° (E) 11:53:43 437.250
VERMONT LUNAR 01 Jul 11:48:09 11:51:18 73° 183° (S) 11:54:29 437.305
UKube-1 01 Jul 11:49:02 11:53:23 77° 285° (WNW) 11:57:41 .
DUCHIFAT 1 01 Jul 11:53:19 11:57:12 34° 263° (W) 12:01:03 145.980
POLYITAN 1 01 Jul 11:53:46 11:57:38 32° 264° (W) 12:01:25 437.675
Oscar 11 01 Jul 11:54:01 11:56:31 15° 295° (WNW) 11:58:51 145.826/435.025
SPROUT 01 Jul 11:56:39 11:57:51 11° 88° (E) 11:59:18 437.525
Cosmos 2499 01 Jul 11:59:42 12:06:45 68° 281° (W) 12:13:50 435.465 / 435.565
HO-68 01 Jul 12:00:38 12:04:17 14° 308° (NW) 12:07:35 435.675
ESTCUBE 1 01 Jul 12:03:55 12:08:26 59° 100° (E) 12:12:53 437.505/2401.250
CUBEBUG 1 01 Jul 12:14:25 12:18:47 65° 101° (E) 12:23:05 437.445
FUNcube-1 01 Jul 12:14:53 12:17:13 14° 294° (WNW) 12:19:25 145.935
UWE-3 01 Jul 12:19:09 12:19:53 10° 297° (WNW) 12:20:23 435.000/436.395/437.385
HUMSAT D 01 Jul 12:24:41 12:27:58 23° 291° (WNW) 12:31:11 437.325/437.525
QB50P2 01 Jul 12:25:40 12:28:14 15° 270° (W) 12:30:38 145.880/145.840
BUGSAT 1 01 Jul 12:26:57 12:30:20 22° 266° (W) 12:33:36 437.445
POPSAT HIP 1 01 Jul 12:27:21 12:29:55 15° 270° (W) 12:32:17 437.405
VELOX 1 01 Jul 12:35:43 12:39:54 41° 289° (WNW) 12:44:01 145.980
Oscar 19 01 Jul 12:38:48 12:43:09 29° 67° (ENE) 12:47:35 437.125/150
ISS 01 Jul 12:41:50 12:43:42 14° 357° (N) 12:45:33 145.825
ITAMSAT 1 01 Jul 12:46:44 12:47:18 10° 58° (ENE) 12:48:09 435.822/435.867
TISAT 1 01 Jul 12:50:34 12:54:14 29° 96° (E) 12:57:55 437.305
PHONESAT 2.4 01 Jul 12:51:43 12:55:10 74° 177° (S) 12:58:39 2401.200-2431.200
YUBILEINY 01 Jul 12:58:57 13:02:19 13° 54° (NE) 13:06:18 435.215
DX 1 01 Jul 13:00:22 13:02:41 14° 296° (WNW) 13:04:50 434.975-435.025
RS-15 01 Jul 13:09:02 13:20:27 58° 246° (WSW) 13:32:09 29.354- 29.394
50 SAT 01 Jul 13:13:22 13:15:01 12° 295° (WNW) 13:16:28 437.505
AO-7 01 Jul 13:17:29 13:18:45 11° 42° (NE) 13:20:32 29.400- 29.500
AISAT 01 Jul 13:23:05 13:25:32 14° 296° (WNW) 13:27:48 437.250
VERMONT LUNAR 01 Jul 13:25:07 13:28:05 37° 199° (SSW) 13:31:04 437.305
SWISSCUBE 01 Jul 13:29:00 13:31:38 15° 89° (E) 13:34:27 437.505
SPROUT 01 Jul 13:30:11 13:34:26 63° 285° (WNW) 13:38:39 437.525
ITUPSAT 1 01 Jul 13:32:37 13:35:10 15° 89° (E) 13:37:56 437.325
ESTCUBE 1 01 Jul 13:42:14 13:44:51 15° 296° (WNW) 13:47:18 437.505/2401.250
CUBEBUG 1 01 Jul 13:52:37 13:54:38 13° 297° (WNW) 13:56:28 437.445
Gurwin Techsat 1B 01 Jul 13:54:38 13:59:37 44° 70° (ENE) 14:04:40 435.225
JAS-2 01 Jul 13:56:29 13:58:00 11° 58° (ENE) 13:59:49 435.910
Cosmos 2499 01 Jul 13:59:58 14:01:40 11° 304° (NW) 14:02:51 435.465 / 435.565
Oscar 19 01 Jul 14:17:45 14:22:26 34° 264° (W) 14:27:05 437.125/150
ISS 01 Jul 14:18:31 14:21:00 20° 17° (NNE) 14:23:29 145.825
ITAMSAT 1 01 Jul 14:20:47 14:26:00 74° 73° (ENE) 14:31:15 435.822/435.867
TISAT 1 01 Jul 14:26:31 14:29:53 23° 292° (WNW) 14:33:09 437.305
PHONESAT 2.4 01 Jul 14:29:42 14:33:06 53° 194° (SSW) 14:36:31 2401.200-2431.200
BEESAT 01 Jul 14:50:03 14:54:53 90° 252° (WSW) 14:59:41 436.000
YUBILEINY 01 Jul 14:52:41 15:01:23 65° 78° (ENE) 15:10:06 435.215
AO-7 01 Jul 15:01:52 15:09:36 46° 63° (ENE) 15:17:29 29.400- 29.500
SWISSCUBE 01 Jul 15:05:11 15:09:56 59° 287° (WNW) 15:14:39 437.505
ITUPSAT 1 01 Jul 15:08:47 15:13:32 60° 287° (WNW) 15:18:16 437.325
Cosmos 2491 01 Jul 15:12:42 15:20:49 44° 88° (E) 15:29:02 435.465 / 435.565
PCSat 01 Jul 15:12:47 15:14:14 11° 104° (ESE) 15:16:02 145.827
HORYU 2 01 Jul 15:21:49 15:25:57 41° 71° (ENE) 15:30:08 437.375
KKS-1 01 Jul 15:23:07 15:27:09 34° 97° (E) 15:31:13 437.445
BEESAT 3 01 Jul 15:26:34 15:27:03 10° 35° (NE) 15:27:42 437.485
AIST 1 01 Jul 15:26:37 15:29:51 21° 88° (E) 15:33:13
RS-15 01 Jul 15:28:09 15:30:53 10° 264° (W) 15:32:14 29.354- 29.394
Gurwin Techsat 1B 01 Jul 15:35:32 15:39:50 24° 267° (W) 15:44:01 435.225
JAS-2 01 Jul 15:37:12 15:42:23 90° 83° (E) 15:47:43 435.910
Cosmos 2504 01 Jul 15:37:15 15:40:23 13° 58° (ENE) 15:44:07 435.465 / 435.565
ISS 01 Jul 15:54:31 15:57:46 87° 33° (NNE) 16:01:01 145.825
ITAMSAT 1 01 Jul 16:03:32 16:06:10 13° 272° (W) 16:08:31 435.822/435.867
PHONESAT 2.4 01 Jul 16:08:18 16:10:44 18° 209° (SSW) 16:13:09 2401.200-2431.200
STARS 01 Jul 16:23:28 16:27:52 85° 283° (WNW) 16:32:13 437.465
SO-50 01 Jul 16:27:54 16:28:40 10° 107° (ESE) 16:29:44 436.795
AIST 2 01 Jul 16:29:54 16:30:27 10° 34° (NE) 16:31:08 435.215
BEESAT 01 Jul 16:30:38 16:32:04 11° 300° (WNW) 16:33:14 436.000
CUTE-I 01 Jul 16:36:20 16:36:52 10° 57° (ENE) 16:37:44 437.470
O/OREOS (USA 219) 01 Jul 16:40:42 16:42:30 12° 49° (NE) 16:44:30 437.305
YUBILEINY 01 Jul 16:50:34 16:57:37 27° 277° (W) 17:04:23 435.215
PCSat 01 Jul 16:51:32 16:56:57 88° 123° (ESE) 17:02:26 145.827
MOZHAYETS 4 01 Jul 16:52:26 16:56:37 33° 96° (E) 17:00:50
AO-7 01 Jul 16:54:39 17:02:29 42° 262° (W) 17:10:17 29.400- 29.500
HORYU 2 01 Jul 16:59:42 17:02:49 18° 268° (W) 17:05:48 437.375
KKS-1 01 Jul 17:00:08 17:03:38 23° 293° (WNW) 17:07:01 437.445
BEESAT 3 01 Jul 17:01:47 17:05:51 68° 55° (NE) 17:09:50 437.485
AIST 1 01 Jul 17:03:20 17:07:19 33° 285° (WNW) 17:11:19
Cubesat XI-IV 01 Jul 17:05:56 17:09:38 20° 63° (ENE) 17:13:31 437.490
BEESAT 2 01 Jul 17:09:11 17:13:16 64° 55° (NE) 17:17:16 435.950
Cosmos 2491 01 Jul 17:09:29 17:17:46 42° 288° (WNW) 17:25:58 435.465 / 435.565
Cosmos 2504 01 Jul 17:27:42 17:35:20 72° 80° (E) 17:43:33 435.465 / 435.565
ISS 01 Jul 17:33:05 17:33:45 10° 230° (SW) 17:34:17 145.825
SO-50 01 Jul 18:03:47 18:08:31 89° 302° (WNW) 18:13:26 436.795
AIST 2 01 Jul 18:05:44 18:09:56 64° 55° (NE) 18:14:02 435.215
CUTE-I 01 Jul 18:10:46 18:16:06 72° 74° (ENE) 18:21:29 437.470
O/OREOS (USA 219) 01 Jul 18:18:04 18:22:37 81° 247° (WSW) 18:27:09 437.305
MOZHAYETS 4 01 Jul 18:29:52 18:33:43 26° 292° (WNW) 18:37:29
PCSat 01 Jul 18:37:34 18:41:11 17° 319° (NW) 18:44:40 145.827
BEESAT 3 01 Jul 18:42:15 18:43:17 11° 251° (WSW) 18:44:07 437.485
Cubesat XI-IV 01 Jul 18:44:03 18:49:20 58° 259° (W) 18:54:40 437.490
CUBESAT XI-V 01 Jul 18:46:44 18:51:13 44° 97° (E) 18:55:41 437.345
BEESAT 2 01 Jul 18:49:19 18:50:50 12° 250° (WSW) 18:52:08 435.950
PRISM 01 Jul 18:50:34 18:52:29 13° 90° (E) 18:54:37 437.425
HO-68 01 Jul 18:54:23 18:58:51 19° 56° (NE) 19:03:38 435.675
CUSAT 1 01 Jul 18:56:22 18:58:19 18° 70° (ENE) 19:00:13 437.405
GOMX 1 01 Jul 18:59:06 19:01:56 15° 65° (ENE) 19:04:53 467.674
BRITE-PL 01 Jul 19:05:05 19:09:43 29° 69° (ENE) 19:14:15 437.365/2234.400
Cosmos 2504 01 Jul 19:22:31 19:28:10 22° 276° (W) 19:33:46 435.465 / 435.565
GONETS M04 01 Jul 19:28:50 19:35:50 27° 65° (ENE) 19:43:03
DANDE 01 Jul 19:37:12 19:40:10 44° 76° (ENE) 19:42:43 436.750
AIST 2 01 Jul 19:46:12 19:48:01 12° 250° (WSW) 19:49:37 435.215
SO-50 01 Jul 19:46:44 19:49:49 16° 324° (NW) 19:52:50 436.795
AAUSAT CUBESAT 2 01 Jul 19:47:22 19:48:22 11° 64° (ENE) 19:49:35 437.432
CUTE-I 01 Jul 19:53:48 19:56:50 15° 272° (W) 19:59:35 437.470
DOVE 4 01 Jul 19:57:12 20:01:34 33° 71° (ENE) 20:05:47 437.250
STRAND 1 01 Jul 20:01:06 20:06:18 81° 105° (ESE) 20:11:26 437.568
CUTE 1.7 + AOD 2 01 Jul 20:07:15 20:10:59 32° 71° (ENE) 20:14:47 437.475
COMPASS 1 01 Jul 20:08:18 20:11:27 22° 68° (ENE) 20:14:41 437.405
CANX-2 01 Jul 20:09:56 20:13:49 38° 72° (ENE) 20:17:46 2200.000
PRISM 01 Jul 20:24:12 20:28:19 52° 287° (WNW) 20:32:23 437.425
CUBESAT XI-V 01 Jul 20:24:54 20:28:23 20° 294° (WNW) 20:31:43 437.345
GOMX 1 01 Jul 20:34:24 20:39:39 69° 258° (WSW) 20:44:37 467.674
HO-68 01 Jul 20:38:35 20:45:45 89° 76° (ENE) 20:52:58 435.675
CUBEBUG 2 01 Jul 20:40:31 20:43:31 19° 68° (ENE) 20:46:36 437.445
BRITE-PL 01 Jul 20:42:55 20:48:07 38° 263° (W) 20:53:02 437.365/2234.400
ZACube-1 01 Jul 20:56:57 20:59:42 18° 67° (ENE) 21:02:32 437.345
SEEDS 01 Jul 21:00:12 21:04:22 78° 258° (WSW) 21:08:35 437.485
CINEMA 3 01 Jul 21:06:00 21:10:35 76° 76° (ENE) 21:14:59 145.822/145.860
AUBIESAT-1 01 Jul 21:09:43 21:13:24 31° 102° (ESE) 21:17:22 437.475
Oscar 11 01 Jul 21:11:23 21:15:25 42° 72° (ENE) 21:19:31 145.826/435.025
AAUSAT CUBESAT 2 01 Jul 21:19:21 21:23:27 69° 259° (W) 21:27:37 437.432
GONETS M04 01 Jul 21:24:53 21:33:30 67° 267° (W) 21:42:02
FUNcube-1 01 Jul 21:33:09 21:37:07 41° 73° (ENE) 21:41:04 145.935
DOVE 4 01 Jul 21:35:06 21:39:20 27° 265° (W) 21:43:20 437.250
UWE-3 01 Jul 21:36:53 21:41:07 61° 75° (ENE) 21:45:17 435.000/436.395/437.385
M-CUBED/EXP-1 PRIME 01 Jul 21:40:36 21:44:44 79° 107° (ESE) 21:49:11 437.505
HUMSAT D 01 Jul 21:41:08 21:44:18 22° 68° (ENE) 21:47:32 437.325/437.525
STRAND 1 01 Jul 21:42:14 21:44:53 14° 299° (WNW) 21:47:19 437.568
COMPASS 1 01 Jul 21:43:15 21:46:58 31° 264° (W) 21:50:40 437.405
CUTE 1.7 + AOD 2 01 Jul 21:43:44 21:46:59 21° 267° (W) 21:50:10 437.475
CANX-2 01 Jul 21:47:01 21:49:57 18° 269° (W) 21:52:45 2200.000
Cosmos 2499 01 Jul 21:49:03 21:56:18 43° 74° (ENE) 22:04:09 435.465 / 435.565
DELFI C3 01 Jul 21:56:33 22:00:34 84° 257° (WSW) 22:04:36 145.870
VELOX 1 01 Jul 21:58:14 22:01:12 18° 66° (ENE) 22:04:20 145.980
CUBEBUG 2 01 Jul 22:15:56 22:20:01 38° 262° (W) 22:23:58 437.445
DX 1 01 Jul 22:18:08 22:22:23 52° 73° (ENE) 22:26:41 434.975-435.025
50 SAT 01 Jul 22:21:30 22:24:51 30° 71° (ENE) 22:28:15 437.505
HO-68 01 Jul 22:30:16 22:34:33 16° 273° (W) 22:38:26 435.675
ZACube-1 01 Jul 22:31:46 22:35:48 40° 262° (W) 22:39:46 437.345
ANTELSAT 01 Jul 22:34:47 22:37:52 19° 92° (E) 22:41:07 437.575/2403.000
AISAT 01 Jul 22:42:43 22:47:04 53° 73° (ENE) 22:51:28 437.250
UKube-1 01 Jul 22:43:42 22:48:03 89° 256° (WSW) 22:52:25 .
AUBIESAT-1 01 Jul 22:44:37 22:48:03 25° 295° (WNW) 22:51:37 437.475
TIGRISAT 01 Jul 22:48:11 22:51:46 25° 95° (E) 22:55:29 435.000
Oscar 11 01 Jul 22:48:59 22:51:51 17° 269° (W) 22:54:34 145.826/435.025
SPROUT 01 Jul 22:52:31 22:52:56 10° 62° (ENE) 22:53:35 437.525
ESTCUBE 1 01 Jul 23:03:32 23:07:57 55° 73° (ENE) 23:12:26 437.505/2401.250
CUBEBUG 1 01 Jul 23:10:25 23:14:45 55° 74° (ENE) 23:19:07 437.445
FUNcube-1 01 Jul 23:10:54 23:13:40 16° 269° (W) 23:16:17 145.935
QB50P1 01 Jul 23:14:34 23:17:41 20° 93° (E) 23:20:53 145.935-145.965
HUMSAT D 01 Jul 23:16:17 23:19:55 29° 264° (W) 23:23:31 437.325/437.525
UWE-3 01 Jul 23:16:40 23:18:07 11° 272° (W) 23:19:19 435.000/436.395/437.385
M-CUBED/EXP-1 PRIME 01 Jul 23:17:48 23:19:08 11° 300° (WNW) 23:20:18 437.505
UNISAT 6 01 Jul 23:26:03 23:30:24 69° 101° (ESE) 23:34:50 437.425
GONETS M04 01 Jul 23:26:08 23:28:50 11° 285° (WNW) 23:30:48
NANOSAT C BR1 01 Jul 23:29:37 23:33:17 29° 96° (E) 23:36:59 145.865
VELOX 1 01 Jul 23:33:10 23:37:27 45° 261° (W) 23:41:46 145.980
DUCHIFAT 1 01 Jul 23:37:31 23:41:22 35° 97° (E) 23:45:13 145.980
POLYITAN 1 01 Jul 23:38:34 23:42:29 38° 97° (E) 23:46:26 437.675
Cosmos 2499 01 Jul 23:42:19 23:49:26 39° 271° (W) 23:56:54 435.465 / 435.565
TISAT 1 01 Jul 23:43:07 23:46:29 24° 68° (ENE) 23:49:56 437.305
DX 1 01 Jul 23:56:31 23:59:00 14° 270° (W) 00:01:18 434.975-435.025
50 SAT 01 Jul 23:56:47 23:59:34 18° 267° (W) 00:02:15 437.505
PCSat 01 Jul 23:57:28 00:00:15 14° 37° (NE) 00:03:12 145.827
BUGSAT 1 02 Jul 00:08:00 00:11:58 51° 99° (E) 00:15:55 437.445
QB50P2 02 Jul 00:08:35 00:12:49 87° 104° (ESE) 00:17:02 145.880/145.840
POPSAT HIP 1 02 Jul 00:10:06 00:14:20 87° 102° (ESE) 00:18:32 437.405
ANTELSAT 02 Jul 00:10:46 00:14:50 38° 288° (WNW) 00:18:56 437.575/2403.000
AISAT 02 Jul 00:21:27 00:24:02 15° 270° (W) 00:26:25 437.250
BEESAT 02 Jul 00:22:08 00:24:05 13° 61° (ENE) 00:26:15 436.000
SPROUT 02 Jul 00:24:07 00:28:26 81° 257° (WSW) 00:32:47 437.525
TIGRISAT 02 Jul 00:24:45 00:28:32 29° 290° (WNW) 00:32:18 435.000
SWISSCUBE 02 Jul 00:35:47 00:39:01 19° 65° (ENE) 00:42:25 437.505
ITUPSAT 1 02 Jul 00:39:40 00:42:52 19° 64° (ENE) 00:46:14 437.325
ESTCUBE 1 02 Jul 00:42:40 00:45:15 14° 271° (W) 00:47:37 437.505/2401.250
CUBEBUG 1 02 Jul 00:49:06 00:51:31 14° 271° (W) 00:53:43 437.445
QB50P1 02 Jul 00:49:51 00:53:39 33° 289° (WNW) 00:57:25 145.935-145.965
SO-50 02 Jul 00:55:49 00:58:50 16° 36° (NE) 01:01:57 436.795
